Regional Weather Roundup
Issued by NWS

Home | Current Version | Previous Version | Graphics & Text | Print | Product List | Glossary Off
Versions: 1 2 3 4 5 6 7 8 9 10 11 12 13 14 15 16 17 18 19 20 21 22 23 24 25 26 27 28 29 30 31 32 33 34 35 36 37 38 39 40 41 42 43 44 45 46 47 48 49 50

000
ASUS43 KLOT 291608
RWRIL

ILLINOIS REGIONAL WEATHER ROUNDUP
NATIONAL WEATHER SERVICE CHICAGO/ROMEOVILLE IL
1100 AM CDT FRI APR 29 2016

NOTE: "FAIR" INDICATES FEW OR NO CLOUDS BELOW 12,000 FEET WITH NO
SIGNIFICANT WEATHER AND/OR OBSTRUCTIONS TO VISIBILITY.

* THESE STATIONS ARE NOT UNDER NWS QUALITY CONTROL. THEY ALSO MAY NOT
  REPORT WEATHER SUCH AS PRECIPITATION OR FOG.

ILZ001-002-007-009-015-016-024-291700-
NORTHWEST ILLINOIS

CITY           SKY/WX    TMP DP  RH WIND       PRES   REMARKS
MOLINE         CLOUDY    48  40  73 NE3       30.12R
STERLING*      CLOUDY    46  39  76 NE9       30.11S
SAVANNA*       PTSUNNY   47  39  73 NE15      30.09F
$$

ILZ003-004-008-010-011-017-018-291700-
NORTH CENTRAL ILLINOIS

CITY           SKY/WX    TMP DP  RH WIND       PRES   REMARKS
ROCKFORD       CLOUDY    46  38  73 NE8       30.14R
FREEPORT*      CLOUDY    45  39  81 NE12      30.12F
ROCHELLE*      CLOUDY    45  40  82 NE13      30.09F
DE KALB*       CLOUDY    45  40  83 NE10      30.11F
$$

ILZ005-006-012>014-019>023-291700-
NORTHEAST ILLINOIS

CITY           SKY/WX    TMP DP  RH WIND       PRES   REMARKS
CHICAGO-OHARE  CLOUDY    44  39  82 NE12      30.10S
CHICAGO-MIDWAY CLOUDY    48  39  71 N10       30.09F
AURORA         CLOUDY    47  40  76 NE13      30.09F
LANSING*       CLOUDY    47  40  77 N10       30.09F
JOLIET*        CLOUDY    47  43  87 NE10      30.09F FOG
WAUKEGAN       CLOUDY    43  39  86 NE6       30.12R
DUPAGE AIRPORT CLOUDY    45  38  76 N10       30.09F
KANKAKEE*      CLOUDY    49  43  79 N5        30.09S
WHEELING       CLOUDY    43  39  86 NE6       30.14R
MORRIS*        CLOUDY    47  42  82 NE3       30.09R
ROMEOVILLE*    CLOUDY    45  40  83 N12       30.09F
NORTHERLY ISL    N/A     44  40  85 MISG        N/A
NORTHERLY ISL    N/A     44  40  85 MISG        N/A
$$

LMZ740>746-291700-
SOUTHERN LAKE MICHIGAN

STATION/POSITION SKY/WX   TEMP    WIND        PRES    VSBY  WAVE
                          AIR SEA DIR/SP/G                  HT/PER
                          (F)     (DEG/KT/KT) (MB)    (MI)  (FT/S)
SOUTHERN BUOY              40 40   40/ 10/ 10 1020.0R         1/ 3
HARRISON CRIB              42     350/ 10/ 11   N/A
BURNHAM HARBOR             44     360/ 14       N/A
CALUMET HARBOR             43     330/  8/ 12 1019.3R
BURNS HARBOR               42     320/ 10/ 14 1020.0R
MICHIGAN CITY              42     270/ 12/ 13   N/A
ST. JOSEPH                 43 46     CALM       N/A           1/ 3
$$

ILZ025>027-034>036-040-047-049-050-058-095>099-291700-
WEST-CENTRAL ILLINOIS

CITY           SKY/WX    TMP DP  RH WIND       PRES   REMARKS
QUINCY         CLOUDY    52  47  83 NE15      30.06F
GALESBURG*     CLOUDY    47  42  85 N8        30.11F
MACOMB*        CLOUDY    49  46  88 NE8       30.12F
JACKSONVILLE*  CLOUDY    55  49  81 NE8       30.08R
PITTSFIELD*    CLOUDY    55  49  78 NE13      30.07R
$$

ILZ028>032-037-038-041>044-048-051>054-059>061-291700-
CENTRAL ILLINOIS

CITY           SKY/WX    TMP DP  RH WIND       PRES   REMARKS
PONTIAC        CLOUDY    49  46  89 N9        30.10R
BLOOMINGTON    CLOUDY    51  47  86 N6        30.10S
DECATUR        CLOUDY    55  47  74 N5        30.08F
PEORIA         CLOUDY    51  43  74 N5        30.11R
LACON*         CLOUDY    47  42  82 N6        30.11R
SPRINGFIELD    CLOUDY    54  49  83 NE12      30.07S HAZE
TAYLORVILLE    NOT AVBL
$$

ILZ033-039-045-046-055>057-062-063-291700-
EAST-CENTRAL ILLINOIS

CITY           SKY/WX    TMP DP  RH WIND       PRES   REMARKS
CHAMPAIGN      CLOUDY    55  48  77 N6        30.08S
RANTOUL*       CLOUDY    53  48  82 N6        30.09R HAZE
MATTOON        CLOUDY   N/A N/A N/A N9        30.07S
PARIS*         CLOUDY    56  51  84 N7        30.08S
$$

ILZ079-100>102-291700-
SOUTHWEST ILLINOIS

CITY           SKY/WX    TMP DP  RH WIND       PRES   REMARKS
ALTON          CLOUDY    59  50  72 NE6       30.05R
BELLEVILLE     CLOUDY    60  52  74 E6        30.05R
CAHOKIA*       CLOUDY    61  49  64 E3        30.07R
SPARTA*        CLOUDY    59  52  76 E3        30.07R
$$

ILZ064>066-069>071-074>076-080>082-084>086-088>090-092>094-291700-
SOUTH-CENTRAL ILLINOIS

CITY           SKY/WX    TMP DP  RH WIND       PRES   REMARKS
CARBONDALE     CLOUDY    62  51  67 CALM      30.06R
CAIRO*         CLOUDY    62  53  71 NE5       30.06R
EFFINGHAM*     CLOUDY    61  51  70 N7        30.06F
MARION         MOSUNNY   63  54  72 E7        30.07R
MT. VERNON     CLOUDY    63  50  63 NE6       30.06R
CENTRALIA*     CLOUDY    62  53  72 E5        30.05R
SALEM*         CLOUDY    62  51  66 NE7       30.05R
METROPOLIS*    CLOUDY    64  54  70 CALM      30.07R
$$

ILZ067-068-072-073-078-083-087-091-291700-
SOUTHEAST ILLINOIS

CITY           SKY/WX    TMP DP  RH WIND       PRES   REMARKS
LAWRENCEVILLE  CLOUDY    63  50  62 VRB7      30.06F
FLORA*         CLOUDY    64  52  63 NE9       30.06R
FAIRFIELD*     CLOUDY    63  53  68 NE6       30.05R
HARRISBURG*    CLOUDY    63  53  69 NE3       30.06R
ROBINSON*      PTSUNNY   61  52  72 NE5       30.07S
CARMI*         CLOUDY    64  52  66 E5        30.04S
$$

ABBREVIATIONS USED IN REMARKS
   TC - TEMPERATURE IN CELSIUS
  WCI - WIND CHILL INDEX
   HX - HEAT INDEX
  VSB - VISIBILITY
$$





USA.gov is the U.S. government's official web portal to all federal, state and local government web resources and services.